Date String (YYYY-MM-DD hh:mm:ss) UTC,Instrument flags,absolute air pressure of the measurement (hPa),sample flow rate (lpm),inlet stack bypass flow (lpm),air temperature of the measurement (°C),ambient temperature measured by the external sensor (°C),aerosol sample conditioner tube jacket temperature (°C),OPC LED temperature (°C),internal box temperature (°C),relative humidity of the measurement (%),span deviation,mass concentration of particles derived from Lorenz-Mie calculation of OPC scattering (μg/m³),mass concentration of particles derived from Lorenz-Mie calculation of OPC scattering (μg/m³),mass concentration of particles derived from Lorenz-Mie calculation of OPC scattering (μg/m³)
DateTimeUTC,F1_M11,P_M11,Q1_M11,Q2_M11,T1_M11,T2_M11,T3_M11,T4_M11,T5_M11,U1_M11,ZSPAN_M11,X0_M11,X2_M11,X1_M11
2023-08-03 14:00:00,SystemResetWarning,0833.4,5.00,000.00,031.1,028.3,000.0,039.1,031.7,35.8,0000.0,0007.78,0004.11,0003.65
2023-08-03 14:01:00,SystemResetWarning,0833.4,4.99,000.00,031.4,028.4,000.0,039.1,031.9,35.6,0000.0,0007.78,0004.10,0003.64
2023-08-03 14:02:00,SystemResetWarning,0833.4,5.02,000.00,031.8,028.5,000.0,039.1,032.0,34.6,0000.0,0007.76,0004.08,0003.62
2023-08-03 14:03:00,SystemResetWarning,0833.4,4.97,000.00,032.1,028.6,000.0,039.2,032.1,33.4,0000.0,0007.78,0004.06,0003.61
2023-08-03 14:04:00,SystemResetWarning,0833.5,5.01,000.00,032.2,028.5,000.0,039.3,032.1,32.9,0000.0,0007.71,0004.02,0003.59
2023-08-03 14:05:00,SystemResetWarning,0833.4,5.00,000.00,032.4,027.4,000.0,039.3,032.0,32.5,0000.0,0006.98,0003.98,0003.56
2023-08-03 14:06:00,SystemResetWarning,0833.4,5.00,000.00,032.4,025.9,000.0,039.3,031.7,33.2,0000.0,0006.71,0003.91,0003.53
2023-08-03 14:07:00,SystemResetWarning,0833.4,5.00,000.00,032.3,025.6,000.0,039.3,031.5,33.3,0000.0,0006.35,0003.88,0003.50
2023-08-03 14:08:00,SystemResetWarning,0833.5,5.01,000.00,032.2,025.8,000.0,039.4,031.3,33.2,0000.0,0006.19,0003.86,0003.48
2023-08-03 14:09:00,SystemResetWarning,0833.4,5.01,000.00,032.0,026.2,000.0,039.5,031.3,33.2,0000.0,0006.54,0003.82,0003.45
2023-08-03 14:10:00,SystemResetWarning,0833.4,5.00,000.00,032.0,026.6,000.0,039.6,031.4,32.7,0000.0,0007.04,0003.77,0003.41
2023-08-03 14:11:00,SystemResetWarning,0833.4,5.00,000.00,031.9,027.0,000.0,039.6,031.5,31.7,0000.0,0006.81,0003.69,0003.38
2023-08-03 14:12:00,SystemResetWarning,0833.4,5.00,000.00,031.9,027.3,000.0,039.7,031.5,32.3,0000.0,0006.93,0003.69,0003.37
2023-08-03 14:13:00,SystemResetWarning,0833.5,4.99,000.00,031.8,027.5,000.0,039.7,031.6,32.5,0000.0,0007.09,0003.70,0003.36
2023-08-03 14:14:00,SystemResetWarning,0833.5,5.00,000.00,031.8,027.8,000.0,039.7,031.7,33.8,0000.0,0007.00,0003.68,0003.34
2023-08-03 14:15:00,SystemResetWarning,0833.6,5.00,000.00,031.8,028.0,000.0,039.7,031.7,34.0,0000.0,0006.62,0003.65,0003.34
2023-08-03 14:16:00,SystemResetWarning,0833.6,5.00,000.00,031.7,028.1,000.0,039.7,031.8,33.7,0000.0,0006.70,0003.67,0003.34
2023-08-03 14:17:00,SystemResetWarning,0833.6,5.00,000.00,031.7,028.3,000.0,039.7,031.8,33.8,0000.0,0006.75,0003.70,0003.36
2023-08-03 14:18:00,SystemResetWarning,0833.6,5.01,000.00,031.7,028.4,000.0,039.7,031.8,33.9,0000.0,0006.81,0003.70,0003.37
2023-08-03 14:19:00,SystemResetWarning,0833.6,5.01,000.00,031.7,028.5,000.0,039.7,031.9,34.1,0000.0,0007.38,0003.72,0003.40
2023-08-03 14:20:00,SystemResetWarning,0833.6,5.01,000.00,031.6,028.6,000.0,039.7,031.9,33.6,0000.0,0007.52,0003.77,0003.44
2023-08-03 14:21:00,SystemResetWarning,0833.6,4.99,000.00,031.6,028.1,000.0,039.7,031.9,33.2,0000.0,0007.44,0003.83,0003.47
2023-08-03 14:22:00,SystemResetWarning,0833.5,4.99,000.00,031.6,026.6,000.0,039.5,031.6,33.5,0000.0,0008.01,0003.90,0003.50
2023-08-03 14:23:00,SystemResetWarning,0833.5,5.01,000.00,031.5,025.7,000.0,039.4,031.4,33.7,0000.0,0008.04,0003.95,0003.53
2023-08-03 14:24:00,SystemResetWarning,0833.5,5.01,000.00,031.4,025.7,000.0,039.4,031.2,33.5,0000.0,0008.11,0003.96,0003.55
2023-08-03 14:25:00,SystemResetWarning,0833.5,5.00,000.00,031.2,026.0,000.0,039.4,031.2,32.8,0000.0,0008.63,0003.99,0003.58
2023-08-03 14:26:00,SystemResetWarning,0833.4,5.00,000.00,031.1,026.4,000.0,039.4,031.2,33.9,0000.0,0008.85,0004.05,0003.63
2023-08-03 14:27:00,SystemResetWarning,0833.4,4.99,000.00,031.0,026.8,000.0,039.4,031.3,34.9,0000.0,0008.91,0004.10,0003.66
2023-08-03 14:28:00,SystemResetWarning,0833.4,5.00,000.00,031.1,027.1,000.0,039.4,031.4,32.2,0000.0,0008.93,0004.13,0003.69
2023-08-03 14:29:00,SystemResetWarning,0833.5,4.99,000.00,031.1,027.4,000.0,039.3,031.5,32.7,0000.0,0009.06,0004.19,0003.71
2023-08-03 14:30:00,SystemResetWarning,0833.5,5.02,000.00,031.1,027.7,000.0,039.3,031.5,33.5,0000.0,0008.89,0004.23,0003.72
2023-08-03 14:31:00,SystemResetWarning,0833.5,5.01,000.00,031.1,027.9,000.0,039.3,031.6,33.1,0000.0,0008.83,0004.22,0003.72
2023-08-03 14:32:00,SystemResetWarning,0833.6,4.99,000.00,031.1,028.0,000.0,039.3,031.6,34.0,0000.0,0008.64,0004.21,0003.73
2023-08-03 14:33:00,SystemResetWarning,0833.6,4.99,000.00,031.1,028.2,000.0,039.3,031.7,34.0,0000.0,0008.18,0004.21,0003.73
2023-08-03 14:34:00,SystemResetWarning,0833.6,5.00,000.00,031.1,028.3,000.0,039.3,031.7,34.7,0000.0,0008.96,0004.22,0003.74
2023-08-03 14:35:00,SystemResetWarning,0833.7,5.02,000.00,031.1,028.4,000.0,039.3,031.7,33.4,0000.0,0009.38,0004.24,0003.76
2023-08-03 14:36:00,SystemResetWarning,0833.7,5.00,000.00,031.1,028.0,000.0,039.3,031.7,34.2,0000.0,0009.02,0004.28,0003.77
2023-08-03 14:37:00,SystemResetWarning,0833.7,4.97,000.00,031.1,026.5,000.0,039.1,031.5,33.1,0000.0,0008.81,0004.28,0003.77
2023-08-03 14:38:00,SystemResetWarning,0833.7,5.02,000.00,031.0,025.7,000.0,039.0,031.3,34.1,0000.0,0008.85,0004.28,0003.77
2023-08-03 14:39:00,SystemResetWarning,0833.7,5.00,000.00,030.9,025.7,000.0,039.0,031.1,33.5,0000.0,0008.86,0004.28,0003.77
2023-08-03 14:40:00,SystemResetWarning,0833.6,4.98,000.00,030.8,026.0,000.0,039.0,031.1,34.8,0000.0,0008.98,0004.29,0003.79
2023-08-03 14:41:00,SystemResetWarning,0833.6,5.05,000.00,030.8,026.4,000.0,039.0,031.2,34.8,0000.0,0009.01,0004.29,0003.81
2023-08-03 14:42:00,SystemResetWarning,0833.6,4.96,000.00,030.9,026.8,000.0,039.0,031.4,33.9,0000.0,0008.77,0004.30,0003.81
2023-08-03 14:43:00,SystemResetWarning,0833.7,5.02,000.00,031.0,027.1,000.0,039.0,031.4,33.8,0000.0,0008.80,0004.34,0003.83
2023-08-03 14:44:00,SystemResetWarning,0833.7,5.00,000.00,031.0,027.4,000.0,039.0,031.4,32.9,0000.0,0008.84,0004.37,0003.85
2023-08-03 14:45:00,SystemResetWarning,0833.7,5.00,000.00,031.1,027.7,000.0,039.1,031.5,33.4,0000.0,0008.83,0004.38,0003.87
2023-08-03 14:46:00,SystemResetWarning,0833.7,5.00,000.00,031.1,027.9,000.0,039.1,031.5,34.1,0000.0,0007.84,0004.38,0003.86
2023-08-03 14:47:00,SystemResetWarning,0833.7,5.00,000.00,031.1,028.1,000.0,039.1,031.6,34.1,0000.0,0007.82,0004.35,0003.86
2023-08-03 14:48:00,SystemResetWarning,0833.7,5.00,000.00,031.1,028.2,000.0,039.1,031.6,34.1,0000.0,0007.82,0004.36,0003.85
2023-08-03 14:49:00,SystemResetWarning,0833.7,4.98,000.00,031.1,027.5,000.0,039.1,031.6,32.6,0000.0,0007.80,0004.33,0003.83
2023-08-03 14:50:00,SystemResetWarning,0833.7,5.00,000.00,031.1,026.1,000.0,038.9,031.4,31.1,0000.0,0007.80,0004.32,0003.81
2023-08-03 14:51:00,SystemResetWarning,0833.7,5.00,000.00,031.0,025.6,000.0,038.9,031.2,31.3,0000.0,0007.76,0004.30,0003.79
2023-08-03 14:52:00,SystemResetWarning,0833.7,5.01,000.00,030.9,025.7,000.0,038.9,031.0,31.9,0000.0,0007.55,0004.25,0003.77
2023-08-03 14:53:00,SystemResetWarning,0833.7,5.01,000.00,030.7,026.1,000.0,038.9,031.0,32.5,0000.0,0007.50,0004.25,0003.77
2023-08-03 14:54:00,SystemResetWarning,0833.7,5.00,000.00,030.7,026.5,000.0,038.9,031.1,32.4,0000.0,0007.55,0004.24,0003.76
2023-08-03 14:55:00,SystemResetWarning,0833.7,5.00,000.00,030.6,026.8,000.0,038.9,031.2,32.4,0000.0,0007.63,0004.25,0003.75
2023-08-03 14:56:00,SystemResetWarning,0833.8,5.00,000.00,030.6,027.2,000.0,038.9,031.2,31.5,0000.0,0007.46,0004.23,0003.74
2023-08-03 14:57:00,SystemResetWarning,0833.8,4.99,000.00,030.6,027.4,000.0,038.9,031.3,32.9,0000.0,0007.39,0004.21,0003.73
2023-08-03 14:58:00,SystemResetWarning,0833.8,5.00,000.00,030.6,027.7,000.0,038.9,031.3,34.0,0000.0,0007.36,0004.19,0003.72
2023-08-03 14:59:00,SystemResetWarning,0833.8,5.00,000.00,030.6,027.9,000.0,038.9,031.4,34.9,0000.0,0007.34,0004.18,0003.72
